Home > Time Zones > World Clock > Weather > Italy > Monza > Past weeks

Flag for Italy Weather past 2 weeks in Monza, Italy

Now
54 °F

Passing clouds.


Feels Like: 51 °F
Forecast: 47 / 62 °F
Wind: 8 mph from East

Location: Milan / Linate

Current Time: Oct 25, 2014 at 6:01:54 AM

Latest Report: Oct 25, 2014 at 5:20 AM


Visibility: N/A

Pressure: 30.07 "Hg

Humidity: 88%

Dew point: 50 °F

Location of MonzaLocation

Historic Weather in Monza — Graph

°F

Monza temperature yesterday

Maximum temperature yesterday: 70 °F (at 2:20 PM)
Minimum temperature yesterday: 45 °F (at 4:20 AM)
Average temperature yesterday: 55 °F

Past Weeks' High & Low Weather Summary

 TemperatureHumidityPressure
High77 °F (Oct 17, 4:20 PM)100% (Oct 10, 4:20 AM)30.30 "Hg (Oct 10, 4:20 AM)
Low45 °F (Oct 24, 4:20 AM)16% (Oct 22, 2:20 PM)29.62 "Hg (Oct 22, 12:20 AM)
Average64 °F80%29.97 "Hg
* Reported Oct 10 4:20 AM — Oct 25 4:50 AM, Monza, Weather by CustomWeather, © 2014

Note: Actual official high and low records may vary slightly from our data, if they occured in-between our weather recording intervals... More about our weather records

Advertising

Monza weather history for previous 24 hours

 ConditionsComfort  
Time TempWeatherWind HumidityBarometerVisibility
4:50 AM
Oct 25
54 °FClear.8 mph88%30.07 "Hg10 mi
4:20 AM54 °FClear.9 mph88%30.07 "Hg10 mi
3:50 AM54 °FClear.8 mph88%30.07 "Hg10 mi
3:20 AM54 °FClear.7 mph88%30.07 "Hg10 mi
2:50 AM54 °FClear.7 mph82%30.07 "Hg10 mi
2:20 AM52 °FClear.7 mph82%30.07 "Hg10 mi
1:50 AM52 °FClear.7 mph77%30.04 "Hg10 mi
1:20 AM50 °FClear.2 mph76%30.04 "Hg10 mi
12:50 AM50 °FClear.2 mph82%30.04 "Hg10 mi
12:20 AM50 °FClear.2 mph82%30.01 "Hg10 mi
11:50 PM
Oct 24
52 °FClear.1 mph72%30.01 "Hg10 mi
11:20 PM52 °FClear.2 mph72%30.01 "Hg10 mi
10:50 PM52 °FClear.2 mph77%30.01 "Hg10 mi
10:20 PM52 °FClear.2 mph72%29.98 "Hg10 mi
9:50 PM52 °FClear.2 mph72%29.98 "Hg10 mi
9:20 PM54 °FClear.2 mph67%29.98 "Hg10 mi
8:50 PM54 °FClear.2 mph67%29.95 "Hg10 mi
8:20 PM55 °FClear.1 mph63%29.95 "Hg10 mi
7:50 PM55 °FClear.No wind63%29.95 "Hg10 mi
7:20 PM59 °FSunny.No wind55%29.95 "Hg10 mi
6:50 PM61 °FSunny.2 mph52%29.92 "Hg10 mi
6:20 PM63 °FSunny.1 mph42%29.92 "Hg10 mi
5:50 PM68 °FPassing clouds.3 mph30%29.92 "HgN/A
5:20 PM68 °FPassing clouds.5 mph33%29.92 "HgN/A
4:50 PM70 °FPassing clouds.3 mph33%29.92 "HgN/A
4:20 PM70 °FPassing clouds.3 mph29%29.92 "HgN/A
3:50 PM70 °FPassing clouds.3 mph29%29.92 "HgN/A
3:20 PM70 °FSunny.1 mph33%29.92 "Hg10 mi
2:50 PM70 °FSunny.No wind31%29.92 "Hg10 mi
2:20 PM70 °FSunny.1 mph33%29.95 "Hg10 mi
1:50 PM68 °FSunny.2 mph38%29.95 "Hg10 mi
1:20 PM66 °FSunny.2 mph37%29.95 "Hg10 mi
12:50 PM64 °FSunny.2 mph40%29.98 "Hg10 mi
12:20 PM64 °FSunny.2 mph40%29.98 "Hg10 mi
11:50 AM63 °FSunny.1 mph45%29.98 "Hg10 mi
11:20 AM63 °FSunny.1 mph42%29.98 "Hg10 mi
10:50 AM61 °FSunny.2 mph48%29.98 "Hg10 mi
10:20 AM57 °FSunny.2 mph59%29.95 "Hg10 mi
9:50 AM55 °FSunny.2 mph63%29.95 "Hg10 mi
9:20 AM50 °FSunny.2 mph71%29.95 "Hg10 mi
8:50 AM48 °FPassing clouds.5 mph71%29.95 "HgN/A
8:20 AM45 °FPassing clouds.3 mph81%29.92 "HgN/A
7:50 AM45 °FClear.2 mph81%29.92 "Hg10 mi
7:20 AM45 °FPassing clouds.3 mph81%29.92 "HgN/A
6:50 AM45 °FClear.2 mph76%29.92 "Hg10 mi
6:20 AM46 °FClear.2 mph76%29.92 "Hg10 mi
Weather by CustomWeather, © 2014

See weather overviewHow to use our weather pages